FOF325 SCEL-SAWH

Flight info

Callsign FOF325
Flight time N/A
Altitude 35000
Route LINER6C LINER UM783 ANKON UZ122 VUGDU/N0463F360 UW44 BAR/N0460F370 UW44 ESQ UT658 GAL DCT DABLI DABLI1Q
Aircraft B738/M-SDE2E3FGHIRVWY/LB1

Departure

Time N/A
Airport Comodoro Arturo Merino Benítez International Airport (SCEL)

Arrival

Time 2026-05-08 22:29
Airport Ushuaia - Malvinas Argentinas International Airport (SAWH)
Time Latitude Longitude Altitude Speed Heading
2026-05-08 22:16 -54.38893 -67.73653 14530 ft 326 kts 161°
2026-05-08 22:16 -54.40311 -67.72780 14496 ft 328 kts 161°
2026-05-08 22:16 -54.42453 -67.71461 14460 ft 326 kts 161°
2026-05-08 22:16 -54.44586 -67.70147 14458 ft 325 kts 161°
2026-05-08 22:17 -54.46716 -67.68832 14456 ft 326 kts 161°
2026-05-08 22:17 -54.48846 -67.67517 14447 ft 326 kts 161°
2026-05-08 22:17 -54.51029 -67.66499 14198 ft 328 kts 172°
2026-05-08 22:17 -54.53336 -67.66214 13577 ft 334 kts 178°
2026-05-08 22:18 -54.55669 -67.66047 12987 ft 336 kts 178°
2026-05-08 22:18 -54.58012 -67.65861 12410 ft 338 kts 177°
2026-05-08 22:18 -54.60368 -67.65636 11843 ft 339 kts 176°
2026-05-08 22:18 -54.62720 -67.65384 11272 ft 337 kts 176°
2026-05-08 22:19 -54.65029 -67.65125 10713 ft 329 kts 176°
2026-05-08 22:19 -54.67289 -67.64870 10226 ft 320 kts 176°
2026-05-08 22:19 -54.69419 -67.64628 10232 ft 296 kts 176°
2026-05-08 22:19 -54.71474 -67.64394 10076 ft 280 kts 176°
2026-05-08 22:20 -54.73370 -67.64180 9650 ft 276 kts 176°
2026-05-08 22:20 -54.75293 -67.63971 9132 ft 277 kts 177°
2026-05-08 22:20 -54.77222 -67.63761 8798 ft 269 kts 177°
2026-05-08 22:20 -54.79050 -67.63885 8452 ft 261 kts 198°
2026-05-08 22:21 -54.80599 -67.65319 8120 ft 253 kts 223°
2026-05-08 22:21 -54.81635 -67.67684 7852 ft 240 kts 252°
2026-05-08 22:21 -54.81973 -67.70438 7645 ft 227 kts 266°
2026-05-08 22:21 -54.82098 -67.73150 7185 ft 227 kts 268°
2026-05-08 22:22 -54.82184 -67.75780 6839 ft 212 kts 269°
2026-05-08 22:22 -54.82273 -67.78244 6502 ft 198 kts 269°
2026-05-08 22:22 -54.82363 -67.80538 6211 ft 183 kts 269°
2026-05-08 22:22 -54.82445 -67.82660 5911 ft 169 kts 269°
2026-05-08 22:23 -54.82525 -67.84634 5648 ft 160 kts 269°
2026-05-08 22:23 -54.82600 -67.86513 5447 ft 154 kts 269°
2026-05-08 22:23 -54.82676 -67.88356 5221 ft 155 kts 269°
2026-05-08 22:23 -54.82752 -67.90226 4929 ft 155 kts 269°
2026-05-08 22:24 -54.82874 -67.92053 4733 ft 152 kts 265°
2026-05-08 22:24 -54.82989 -67.93909 4465 ft 155 kts 269°
2026-05-08 22:24 -54.83064 -67.95712 4239 ft 150 kts 269°
2026-05-08 22:24 -54.83132 -67.97528 4016 ft 151 kts 269°
2026-05-08 22:25 -54.83198 -67.99347 3767 ft 151 kts 270°
2026-05-08 22:25 -54.83264 -68.01164 3552 ft 151 kts 269°
2026-05-08 22:25 -54.83331 -68.02979 3308 ft 150 kts 269°
2026-05-08 22:25 -54.83396 -68.04779 3083 ft 149 kts 270°
2026-05-08 22:26 -54.83461 -68.06591 2834 ft 151 kts 269°
2026-05-08 22:26 -54.83530 -68.08411 2610 ft 151 kts 269°
2026-05-08 22:26 -54.83597 -68.10227 2367 ft 150 kts 269°
2026-05-08 22:26 -54.83664 -68.12032 2147 ft 150 kts 269°
2026-05-08 22:27 -54.83732 -68.13833 1897 ft 150 kts 269°
2026-05-08 22:27 -54.83799 -68.15629 1662 ft 149 kts 269°
2026-05-08 22:27 -54.83866 -68.17423 1440 ft 149 kts 268°
2026-05-08 22:27 -54.83934 -68.19221 1213 ft 150 kts 268°
2026-05-08 22:28 -54.84002 -68.21021 980 ft 149 kts 268°
2026-05-08 22:28 -54.84071 -68.22809 774 ft 148 kts 268°
2026-05-08 22:28 -54.84139 -68.24592 562 ft 148 kts 268°
2026-05-08 22:28 -54.84207 -68.26365 335 ft 147 kts 268°
2026-05-08 22:29 -54.84291 -68.28316 89 ft 145 kts 269°
2026-05-08 22:29 -54.84340 -68.29892 87 ft 103 kts 265°
2026-05-08 22:29 -54.84377 -68.30750 82 ft 40 kts 265°
2026-05-08 22:29 -54.84386 -68.30980 85 ft 13 kts 266°
2026-05-08 22:30 -54.84392 -68.31138 85 ft 13 kts 265°
2026-05-08 22:30 -54.84390 -68.31265 85 ft 10 kts 294°
2026-05-08 22:30 -54.84329 -68.31314 85 ft 11 kts 354°
2026-05-08 22:30 -54.84251 -68.31321 86 ft 11 kts 357°
2026-05-08 22:31 -54.84175 -68.31328 85 ft 11 kts 356°
2026-05-08 22:31 -54.84111 -68.31302 84 ft 8 kts 56°
2026-05-08 22:31 -54.84095 -68.31209 86 ft 3 kts 83°
2026-05-08 22:31 -54.84083 -68.31175 84 ft 3 kts 40°
2026-05-08 22:32 -54.84061 -68.31168 85 ft 3 kts 359°
2026-05-08 22:32 -54.84041 -68.31172 85 ft 2 kts 350°
2026-05-08 22:32 -54.84028 -68.31177 84 ft 0 kts 350°